Weather History for Elko, NV

Change the Weather History Date:

Friday, March 22, 2013

  Actual Average Record
Temperature  
Mean Temperature 29 °F 40 °F  
Max Temperature 37 °F 53 °F 72 °F (1928)
Min Temperature 20 °F 28 °F -1 °F (1952)
Degree Days  
Heating Degree Days 36 25  
Month to date heating degree days 537 598  
Since 1 July heating degree days 5598 5766  
Cooling Degree Days 0 0  
Month to date cooling degree days 0 0  
Year to date cooling degree days 0 0  
Moisture  
Dew Point 14 °F    
Average Humidity 56    
Maximum Humidity 84    
Minimum Humidity 27    
Precipitation  
Precipitation T in 0.03 in 0.44 in (1945)
Month to date precipitation 0.36 0.71  
Year to date precipitation 1.61 2.67  
Snow  
Snow T in 0.20 in 2.00 in (2009)
Month to date snowfall 2.6 3.7  
Since 1 July snowfall 40.9 36.2  
Snow Depth 0.00 in    
Sea Level Pressure  
Sea Level Pressure 30.05 in    
Wind  
Wind Speed 8 mph (NW)    
Max Wind Speed 24 mph    
Max Gust Speed 35 mph    
Visibility 9 miles    
Events Snow    
T = Trace of Precipitation, MM = Missing Value Source: NWS Daily Summary

Daily Weather History Graph

Daily Weather History Graph

Search for Another Location

Airport:

Trip Planner

Search our weather history database for the weather conditions in past years. The results will help you decide how hot, cold, wet, or windy it might be!

Date:

Astronomy

Mar. 22, 2013 Rise Set
Actual Time 6:42 AM PDT 6:57 PM PDT
Civil Twilight 6:15 AM PDT 7:25 PM PDT
Nautical Twilight 5:43 AM PDT 7:57 PM PDT
Astronomical Twilight 5:10 AM PDT 8:30 PM PDT
Moon 2:27 PM PDT (3/22) 3:47 AM PDT (3/22)
Length of Visible Light 13h 09m
Length of Day
12h 15m
Waxing Gibbous, 78% of the Moon is Illuminated
Mar 22
Waxing Gibbous
Mar 27
Full
Apr 2
Last Quarter
Apr 10
New
Apr 18
First Quarter

Hourly Weather History & Observations

Time (PDT) Temp. Windchill Dew Point Humidity Pressure Visibility Wind Dir Wind Speed Gust Speed Precip Events Conditions
12:56 AM 21.9 °F - 17.1 °F 82% 30.02 in 10.0 mi Calm Calm - N/A   Partly Cloudy
1:56 AM 24.1 °F - 19.0 °F 81% 30.01 in 10.0 mi Calm Calm - N/A   Overcast
2:56 AM 23.0 °F - 18.0 °F 81% 29.99 in 10.0 mi Calm Calm - N/A   Mostly Cloudy
3:56 AM 21.9 °F - 17.1 °F 82% 29.98 in 10.0 mi Calm Calm - N/A   Mostly Cloudy
4:56 AM 24.1 °F - 17.1 °F 75% 29.99 in 10.0 mi Calm Calm - N/A   Overcast
5:56 AM 27.0 °F 19.5 °F 16.0 °F 63% 29.99 in 10.0 mi North 6.9 mph - N/A   Overcast
6:56 AM 26.1 °F 15.6 °F 17.1 °F 69% 30.02 in 9.0 mi NNE 11.5 mph 19.6 mph N/A   Overcast
7:18 AM 24.8 °F 19.1 °F 15.8 °F 69% 29.98 in 9.0 mi North 4.6 mph - N/A   Overcast
7:56 AM 25.0 °F - 16.0 °F 69% 30.06 in 9.0 mi Calm Calm - 0.00 in   Overcast
8:05 AM 24.8 °F - 15.8 °F 69% 30.00 in 10.0 mi Calm Calm - N/A   Overcast
8:56 AM 26.1 °F 19.4 °F 10.9 °F 53% 30.08 in 10.0 mi NNW 5.8 mph - N/A   Overcast
9:56 AM 28.0 °F 20.0 °F 10.0 °F 47% 30.08 in 10.0 mi NW 8.1 mph 18.4 mph N/A   Scattered Clouds
10:56 AM 28.9 °F 20.4 °F 12.0 °F 49% 30.10 in 10.0 mi WNW 9.2 mph - N/A   Overcast
11:56 AM 28.9 °F 21.9 °F 8.1 °F 41% 30.08 in 10.0 mi West 6.9 mph 19.6 mph N/A   Overcast
12:37 PM 32.0 °F 23.0 °F 8.6 °F 38% 30.00 in 10.0 mi NW 11.5 mph 23.0 mph N/A   Mostly Cloudy
12:56 PM 30.9 °F 19.1 °F 10.9 °F 43% 30.09 in 10.0 mi WNW 18.4 mph 24.2 mph N/A   Mostly Cloudy
1:31 PM 32.0 °F 23.6 °F 10.4 °F 41% 29.99 in 10.0 mi NW 10.4 mph 24.2 mph N/A   Mostly Cloudy
1:56 PM 35.1 °F 25.2 °F 5.0 °F 28% 30.05 in 10.0 mi West 16.1 mph 27.6 mph N/A   Partly Cloudy
2:56 PM 36.0 °F 26.0 °F 5.0 °F 27% 30.04 in 10.0 mi West 17.3 mph 23.0 mph N/A   Mostly Cloudy
3:56 PM 33.1 °F 21.2 °F 8.1 °F 35% 30.07 in 10.0 mi NNW 20.7 mph 25.3 mph N/A   Overcast
4:08 PM 33.8 °F 23.2 °F 12.2 °F 41% 30.00 in 10.0 mi NNW 17.3 mph 24.2 mph N/A   Overcast
4:56 PM 32.0 °F 21.6 °F 10.0 °F 40% 30.08 in 10.0 mi NW 15.0 mph - N/A   Mostly Cloudy
5:53 PM 28.4 °F 17.0 °F 17.6 °F 64% 30.02 in 1.5 mi NNW 15.0 mph 23.0 mph 0.00 in Snow Light Snow
5:56 PM 27.0 °F 16.7 °F 19.9 °F 75% 30.11 in 0.8 mi NNW 11.5 mph 23.0 mph 0.00 in Snow Light Snow
6:05 PM 26.6 °F 19.1 °F 19.4 °F 74% 30.02 in 1.0 mi North 6.9 mph - 0.00 in Snow Light Snow
6:07 PM 26.6 °F 19.1 °F 19.4 °F 74% 30.02 in 2.0 mi North 6.9 mph - 0.00 in Snow Light Snow
6:14 PM 26.6 °F 18.2 °F 19.4 °F 74% 30.02 in 9.0 mi NNW 8.1 mph - 0.00 in   Scattered Clouds
6:21 PM 26.6 °F 17.5 °F 17.6 °F 69% 30.02 in 10.0 mi NNW 9.2 mph - 0.00 in   Partly Cloudy
6:56 PM 27.0 °F 18.0 °F 17.1 °F 66% 30.13 in 10.0 mi North 9.2 mph - 0.00 in   Mostly Cloudy
7:56 PM 25.0 °F 16.3 °F 12.9 °F 60% 30.16 in 10.0 mi NW 8.1 mph - N/A   Clear
9:56 PM 23.0 °F 18.4 °F 12.0 °F 63% 30.19 in 10.0 mi WNW 3.5 mph - N/A   Mostly Cloudy
10:56 PM 23.0 °F 17.0 °F 10.9 °F 60% 30.19 in 10.0 mi NW 4.6 mph - N/A   Clear
11:56 PM 23.0 °F 15.8 °F 10.9 °F 60% 30.20 in 10.0 mi NNW 5.8 mph - N/A   Clear